Location: Beaurecueil
(43.5122°N, 5.5450°E)
Time: 13:43:30
(UTC+00:00)

Cosmos 1867 - Pass Details

Date: 18 September 2020
Orbit: 777 x 799 km, 65.0° (Epoch: 31 October)

Event Time Altitude Azimuth Distance (km) Brightness Sun altitude
Rises 18:26:16 0° 329° (NNW) 3,312 7.5 -8.8°
Reaches altitude 10° 18:28:49 10° 336° (NNW) 2,379 6.6 -9.3°
Maximum altitude 18:34:03 44° 49° (NE) 1,094 4.1 -10.2°
Enters shadow 18:38:35 13° 118° (ESE) 2,136 5.2 -11.0°
